Waarnemingen

Advertentie
Mijn weer
Metz-Nancy-Lorraine, Frankrijk (7093): temperatuur & dauwpunt: 14.02.2019 14:00:00 - 20.02.2019 14:00:00 (CET)Metz-Nancy-Lorraine, Frankrijk (7093): windsnelheid & windstoten: 14.02.2019 14:00:00 - 20.02.2019 14:00:00 (CET)Metz-Nancy-Lorraine, Frankrijk (7093): windrichting: 14.02.2019 14:00:00 - 20.02.2019 14:00:00 (CET)Metz-Nancy-Lorraine, Frankrijk (7093): luchtdruk: 14.02.2019 14:00:00 - 20.02.2019 14:00:00 (CET)Metz-Nancy-Lorraine, Frankrijk (7093): zicht: 14.02.2019 14:00:00 - 20.02.2019 14:00:00 (CET)Metz-Nancy-Lorraine, Frankrijk (7093): Zonneschijnduur: 14.02.2019 14:00:00 - 20.02.2019 14:00:00 (CET)Metz-Nancy-Lorraine, Frankrijk (7093): neerslag: 14.02.2019 14:00:00 - 20.02.2019 14:00:00 (CET)
Datum & Tijd tt [°C] td [°C] ff [km/u] ff [kn] fx [km/u] fx [kn] dd ppp [hPa] vv [km] sd [min] rr [mm]
20.02.2019 14:00:00 - - - - - - - - - - -
20.02.2019 13:00:00 10,8 5,3 6 4 16 9 ZW 1025,3 15 60 0,0
20.02.2019 12:00:00 9,0 5,4 4 2 9 5 W 1025,7 9 60 0,0
20.02.2019 11:00:00 6,0 4,2 5 3 9 5 NW 1025,9 7 60 0,0
20.02.2019 10:00:00 2,3 1,1 2 1 8 4 N 1025,9 0,7 60 0,0
20.02.2019 09:00:00 2,7 1,8 2 1 18 10 NNO 1025,4 0,8 58 0,0
20.02.2019 08:00:00 1,3 1,3 17 9 19 11 ZZO 1025,1 2,6 1 0,0
20.02.2019 07:00:00 1,3 1,2 15 8 16 9 ZZO 1024,5 3,6 0 0,0
20.02.2019 06:00:00 1,5 1,5 11 6 14 7 ZZO 1024,4 2,7 0 0,0
20.02.2019 05:00:00 1,1 1,0 9 5 14 8 ZZO 1024,2 7 0 0,0
20.02.2019 04:00:00 1,8 1,5 12 7 14 8 Z 1024,1 13 0 0,0
20.02.2019 03:00:00 1,0 0,7 12 6 16 9 Z 1024,6 11 0 0,0
20.02.2019 02:00:00 0,7 -0,2 7 4 12 7 ZZO 1024,8 11 0 0,0
20.02.2019 01:00:00 1,3 0,4 8 4 10 5 Z 1024,5 18 0 0,0
20.02.2019 00:00:00 2,1 0,8 7 4 10 5 ZZW 1024,4 28 0 0,0
19.02.2019 23:00:00 2,8 1,6 10 5 15 8 Z 1024,1 27 0 0,0
19.02.2019 22:00:00 3,7 1,7 8 4 11 6 ZW 1024,1 32 0 0,0
19.02.2019 21:00:00 3,5 1,7 10 5 16 8 Z 1023,9 26 0 0,0
19.02.2019 20:00:00 4,0 1,5 12 6 16 8 ZZW 1023,6 33 0 0,0
19.02.2019 19:00:00 4,1 1,1 9 5 11 6 ZZW 1023,2 40 0 0,0
19.02.2019 18:00:00 7,6 2,5 5 3 18 10 W 1022,6 38 27 0,0
19.02.2019 17:00:00 9,1 3,3 15 8 26 14 NW 1022,5 48 24 0,0
19.02.2019 16:00:00 9,2 3,8 9 5 19 11 WNW 1022,5 52 0 0,0
19.02.2019 15:00:00 9,5 4,1 11 6 22 12 W 1022,5 51 5 0,0
19.02.2019 14:00:00 9,1 4,3 6 4 21 12 WNW 1022,5 50 0 0,0
19.02.2019 13:00:00 9,0 4,0 9 5 20 11 WNW 1023,0 40 43 0,0
19.02.2019 12:00:00 8,2 5,1 10 5 18 10 ZW 1023,4 20 7 0,0
19.02.2019 11:00:00 6,7 5,2 12 6 17 9 ZW 1023,1 15 0 0,0
19.02.2019 10:00:00 5,8 4,3 7 4 12 6 ZZW 1022,7 14 0 0,2
19.02.2019 09:00:00 5,3 3,1 8 4 17 9 WZW 1022,2 14 0 0,2
19.02.2019 08:00:00 5,5 2,7 14 8 23 12 ZW 1021,2 24 0 0,0
19.02.2019 07:00:00 5,0 2,0 15 8 19 10 Z 1020,3 23 0 0,0
19.02.2019 06:00:00 5,0 2,0 13 7 22 12 Z 1020,0 24 0 0,0
19.02.2019 05:00:00 4,6 1,4 16 9 24 13 Z 1020,0 26 0 0,0
19.02.2019 04:00:00 4,6 1,4 21 11 26 14 Z 1019,7 28 0 0,0
19.02.2019 03:00:00 4,8 0,9 20 11 26 14 Z 1019,7 30 0 0,0
19.02.2019 02:00:00 5,3 0,7 20 11 25 14 Z 1019,8 31 0 0,0
19.02.2019 01:00:00 5,7 1,0 20 11 24 13 Z 1019,7 30 0 0,0
19.02.2019 00:00:00 6,2 1,1 19 11 26 14 Z 1019,6 29 0 0,0
18.02.2019 23:00:00 6,8 1,3 21 12 29 16 Z 1019,5 31 0 0,0
18.02.2019 22:00:00 7,3 1,1 23 13 29 15 Z 1019,3 39 0 0,0
18.02.2019 21:00:00 7,1 1,0 21 11 25 14 Z 1019,4 37 0 0,0
18.02.2019 20:00:00 6,7 1,0 16 8 19 10 Z 1019,3 37 0 0,0
18.02.2019 19:00:00 7,8 1,2 15 8 18 10 Z 1019,1 47 0 0,0
18.02.2019 18:00:00 9,0 2,1 11 6 19 11 Z 1018,7 42 3 0,0
18.02.2019 17:00:00 12,0 2,7 14 8 24 13 Z 1018,3 49 40 0,0
18.02.2019 16:00:00 13,8 2,1 16 9 23 12 ZZW 1018,2 36 54 0,0
18.02.2019 15:00:00 14,4 1,0 17 9 31 17 ZZW 1018,3 28 60 0,0
18.02.2019 14:00:00 13,9 1,8 20 11 37 20 ZW 1018,8 28 60 0,0
18.02.2019 13:00:00 13,7 2,3 21 11 33 18 Z 1019,5 30 60 0,0
18.02.2019 12:00:00 12,5 2,1 18 10 29 15 ZZW 1020,2 33 60 0,0
18.02.2019 11:00:00 9,8 2,4 12 7 21 11 WZW 1021,1 23 60 0,0
18.02.2019 10:00:00 8,9 2,7 11 6 22 12 Z 1021,5 25 60 0,0
18.02.2019 09:00:00 5,7 1,6 18 10 22 12 ZO 1022,0 25 57 0,0
18.02.2019 08:00:00 4,2 0,3 18 10 25 14 Z 1022,3 12 0 0,0
18.02.2019 07:00:00 4,1 0,1 17 9 24 13 ZZO 1022,0 13 0 0,0
18.02.2019 06:00:00 4,4 0,0 15 8 23 12 ZZO 1022,2 19 0 0,0
18.02.2019 05:00:00 4,5 -0,1 18 10 20 11 ZZO 1022,0 19 0 0,0
18.02.2019 04:00:00 3,8 -0,4 19 10 22 12 ZZO 1022,3 26 0 0,0
18.02.2019 03:00:00 4,1 -0,7 20 11 24 13 ZZO 1022,6 20 0 0,0
18.02.2019 02:00:00 5,9 -0,4 21 11 27 15 ZZO 1022,4 16 0 0,0
18.02.2019 01:00:00 6,6 -0,2 24 13 28 15 ZZO 1022,4 18 0 0,0
18.02.2019 00:00:00 6,1 -0,2 20 11 23 12 ZZO 1022,6 26 0 0,0
17.02.2019 23:00:00 6,1 0,0 16 9 20 11 ZZO 1022,8 26 0 0,0
17.02.2019 22:00:00 6,0 -0,1 14 8 19 10 ZZO 1022,9 28 0 0,0
17.02.2019 21:00:00 8,1 -0,2 16 9 22 12 ZZO 1022,5 18 0 0,0
17.02.2019 20:00:00 7,7 0,2 19 11 23 12 Z 1022,5 18 0 0,0
17.02.2019 19:00:00 9,8 0,7 19 10 24 13 ZZO 1022,2 18 0 0,0
17.02.2019 18:00:00 11,0 1,5 18 10 28 15 ZZO 1021,8 45 32 0,0
17.02.2019 17:00:00 14,7 1,9 18 10 27 14 ZZO 1021,3 34 60 0,0
17.02.2019 16:00:00 16,5 1,7 16 9 22 12 Z 1021,7 24 60 0,0
17.02.2019 15:00:00 16,4 2,0 15 8 30 16 Z 1022,1 36 60 0,0
17.02.2019 14:00:00 16,3 1,6 21 11 29 16 ZZO 1022,4 31 60 0,0
17.02.2019 13:00:00 15,6 0,2 16 9 26 14 Z 1023,0 22 60 0,0
17.02.2019 12:00:00 13,8 1,4 16 8 25 13 Z 1023,8 19 60 0,0
17.02.2019 11:00:00 11,6 0,9 16 8 22 12 Z 1024,1 18 60 0,0
17.02.2019 10:00:00 9,0 0,4 12 6 22 12 ZZO 1024,4 27 60 0,0
17.02.2019 09:00:00 5,9 -0,8 21 11 29 15 ZZO 1025,1 20 55 0,0
17.02.2019 08:00:00 4,2 -1,6 24 13 29 15 ZZO 1025,1 23 0 0,0
17.02.2019 07:00:00 4,0 -1,8 21 11 26 14 ZZO 1025,0 22 0 0,0
17.02.2019 06:00:00 4,1 -1,3 18 10 22 12 ZZO 1025,2 16 0 0,0
17.02.2019 05:00:00 3,8 -1,0 19 10 23 12 ZO 1025,4 11 0 0,0
17.02.2019 04:00:00 3,8 -0,6 18 10 22 12 OZO 1025,6 11 0 0,0
17.02.2019 03:00:00 4,3 -1,1 21 11 24 13 ZO 1026,0 14 0 0,0
17.02.2019 02:00:00 4,2 -1,2 7 4 19 10 ZO 1026,3 18 0 0,0
17.02.2019 01:00:00 4,8 -0,4 16 9 21 11 ZZO 1026,5 18 0 0,0
17.02.2019 00:00:00 5,2 -0,2 20 11 22 12 ZZO 1026,6 18 0 0,0
16.02.2019 23:00:00 6,8 -0,2 16 9 19 11 ZZO 1026,7 17 0 0,0
16.02.2019 22:00:00 6,1 1,4 18 10 20 11 ZO 1026,8 12 0 0,0
16.02.2019 21:00:00 6,6 2,9 16 9 18 10 OZO 1026,7 11 0 0,0
16.02.2019 20:00:00 7,8 3,5 17 9 18 10 OZO 1026,8 11 0 0,0
16.02.2019 19:00:00 8,4 3,4 15 8 16 9 OZO 1027,0 12 0 0,0
16.02.2019 18:00:00 10,2 4,1 9 5 11 6 ONO 1026,6 14 28 0,0
16.02.2019 17:00:00 15,1 4,7 3 2 10 5 ONO 1026,4 19 60 0,0
16.02.2019 16:00:00 15,4 4,1 8 4 13 7 ZO 1026,5 16 60 0,0
16.02.2019 15:00:00 14,9 4,3 5 3 10 5 OZO 1027,0 15 60 0,0
16.02.2019 14:00:00 14,2 3,6 4 2 13 7 ZO 1027,6 16 60 0,0
16.02.2019 13:00:00 12,9 3,3 4 2 14 7 Z 1028,2 17 60 0,0
16.02.2019 12:00:00 10,3 1,9 10 5 15 8 Z 1028,9 17 60 0,0
16.02.2019 11:00:00 5,8 1,7 7 4 19 10 Z 1029,4 11 60 0,0
16.02.2019 10:00:00 5,0 0,2 13 7 18 10 ZZO 1029,3 13 60 0,0
16.02.2019 09:00:00 1,2 -1,2 4 2 23 12 ZZW 1030,0 3,4 53 0,0
16.02.2019 08:00:00 -0,8 -1,5 12 6 19 11 ZO 1029,8 6 0 0,0
16.02.2019 07:00:00 0,5 -0,4 10 5 16 9 ZO 1029,1 7 0 0,0
16.02.2019 06:00:00 1,2 0,6 3 2 13 7 W 1029,2 6 0 0,0
16.02.2019 05:00:00 2,2 0,6 16 9 22 12 ZO 1029,1 7 0 0,0
16.02.2019 04:00:00 2,3 0,0 2 1 21 11 O 1029,2 9 0 0,0
16.02.2019 03:00:00 0,8 -0,1 12 6 18 10 OZO 1029,9 9 0 0,0
16.02.2019 02:00:00 1,8 -0,1 3 1 27 14 Z 1030,0 11 0 0,0
16.02.2019 01:00:00 3,8 0,3 24 13 26 14 OZO 1029,5 11 0 0,0
16.02.2019 00:00:00 4,1 0,6 6 3 16 8 O 1029,6 12 0 0,0
15.02.2019 23:00:00 3,2 0,1 15 8 19 10 OZO 1030,0 15 0 0,0
15.02.2019 22:00:00 3,9 -0,7 16 8 21 12 OZO 1030,1 18 0 0,0
15.02.2019 21:00:00 5,1 0,1 18 10 22 12 OZO 1029,7 18 0 0,0
15.02.2019 20:00:00 4,8 0,9 18 10 19 11 OZO 1030,0 20 0 0,0
15.02.2019 19:00:00 6,5 2,9 8 4 9 5 ZO 1030,1 12 0 0,0
15.02.2019 18:00:00 8,3 3,5 4 2 8 4 Z 1029,8 16 29 0,0
15.02.2019 17:00:00 13,2 3,3 5 3 10 5 ZZO 1029,5 24 60 0,0
15.02.2019 16:00:00 12,8 2,3 5 3 15 8 OZO 1030,1 19 60 0,0
15.02.2019 15:00:00 12,5 2,6 4 2 12 7 O 1030,5 26 60 0,0
15.02.2019 14:00:00 11,4 2,1 5 3 11 6 O 1031,4 19 60 0,0
15.02.2019 13:00:00 9,8 1,4 5 3 18 10 OZO 1032,3 21 60 0,0
15.02.2019 12:00:00 7,7 0,6 10 6 22 12 OZO 1033,0 20 60 0,0
15.02.2019 11:00:00 6,0 -0,1 8 4 17 9 OZO 1033,5 19 60 0,0
15.02.2019 10:00:00 4,7 -0,9 8 4 12 7 O 1033,9 21 60 0,0
15.02.2019 09:00:00 2,0 -2,2 3 2 9 5 NNO 1034,3 20 51 0,0
15.02.2019 08:00:00 -1,3 -3,5 5 3 11 6 NO 1034,5 19 0 0,0
15.02.2019 07:00:00 -0,4 -3,9 7 4 9 5 NO 1034,0 21 0 0,0
15.02.2019 06:00:00 -0,1 -3,5 4 2 10 5 NO 1034,1 21 0 0,0
15.02.2019 05:00:00 -0,4 -2,9 6 3 8 4 O 1034,2 21 0 0,0
15.02.2019 04:00:00 -0,7 -3,6 2 1 9 5 N 1034,2 21 0 0,0
15.02.2019 03:00:00 1,6 -3,3 0 0 19 10 N 1034,5 22 0 0,0
15.02.2019 02:00:00 3,4 -2,2 8 5 21 12 NNO 1034,4 18 0 0,0
15.02.2019 01:00:00 2,4 -1,0 4 2 9 5 N 1034,7 14 0 0,0
15.02.2019 00:00:00 3,6 -0,2 10 5 16 9 O 1034,5 14 0 0,0
14.02.2019 23:00:00 4,1 -0,1 14 7 27 15 O 1034,7 15 0 0,0
14.02.2019 22:00:00 3,4 -0,4 24 13 27 14 O 1034,9 16 0 0,0
14.02.2019 21:00:00 4,4 -0,2 19 10 22 12 O 1034,8 19 0 0,0
14.02.2019 20:00:00 4,9 0,1 18 10 21 11 O 1034,8 22 0 0,0
14.02.2019 19:00:00 5,9 0,6 14 8 16 9 O 1034,8 23 0 0,0
14.02.2019 18:00:00 7,1 2,0 14 7 16 9 O 1034,4 21 28 0,0
14.02.2019 17:00:00 10,7 3,9 9 5 15 8 O 1034,0 21 60 0,0
14.02.2019 16:00:00 11,5 2,8 8 4 13 7 O 1034,6 19 60 0,0
14.02.2019 15:00:00 11,0 2,8 7 4 17 9 OZO 1035,1 18 60 0,0
14.02.2019 14:00:00 9,3 2,6 8 5 15 8 OZO 1036,1 14 60 0,0

tt = temperatuur
td = dauwpunt
ff = windsnelheid
fx = windstoten
dd = windrichting
ppp = luchtdruk
vv = zicht
sd = Zonneschijnduur
rr = neerslag

Weerstations in de omgeving